Location: Alfortville
(48.8058°N, 2.4204°E)
Time: 12:45:15
(UTC+00:00)

SL-08 RB Rocket - Pass Details

Date: 24 October 2021
Orbit: 646 x 684 km, 97.8° (Epoch: 05 December)

Event Time Altitude Azimuth Distance (km) Brightness Sun altitude
Rises 18:12:27 0° 159° (SSE) 2,987 6.9 -15.2°
Reaches altitude 10° 18:14:39 10° 158° (SSE) 2,085 6.0 -15.6°
Maximum altitude 18:19:12 74° 74° (ENE) 704 3.6 -16.4°
Drops below altitude 10° 18:23:50 10° 350° (N) 2,124 6.4 -17.1°
Sets 18:26:06 0° 349° (NNW) 3,048 7.3 -17.5°
